Location: Woodhurst
(52.3667°N, 0.0667°W)
Time: 21:18:25
(UTC+00:00)

Cosmos 2237 - Pass Details

Date: 19 May 2025
Orbit: 847 x 854 km, 70.8° (Epoch: 18 June)

Event Time Altitude Azimuth Distance (km) Brightness Sun altitude
Rises 22:48:47 0° 327° (NNW) 3,423 8.9 -16.1°
Reaches altitude 10° 22:51:15 10° 326° (NW) 2,484 7.8 -16.3°
Maximum altitude 22:56:56 72° 243° (WSW) 894 4.2 -16.5°
Enters shadow 23:00:06 27° 165° (SSE) 1,576 5.0 -16.6°
